Flag Weather past 2 weeks in Adelaide, South Australia, Australia

Now
66 °F

Scattered clouds.


Feels Like: 66 °F
Forecast: 55 / 76 °F
Wind: 14 mph from Southwest

Location: Adelaide Airport

Current Time: Nov 26, 2014 at 11:16:34 AM

Latest Report: Nov 26, 2014 at 10:30 AM


Visibility: N/A

Pressure: 30.24 "Hg

Humidity: 52%

Dew point: 48 °F

Location of AdelaideLocation

Historic Weather in Adelaide — Graph

°F

Adelaide temperature yesterday

Maximum temperature yesterday: 66 °F (at 11:30 AM)
Minimum temperature yesterday: 54 °F (at 4:00 AM)
Average temperature yesterday: 61 °F

Past Weeks' High & Low Weather Summary

 TemperatureHumidityPressure
High99 °F (Nov 13, 1:00 PM)100% (Nov 23, 6:00 AM)30.24 "Hg (Nov 23, 6:00 AM)
Low52 °F (Nov 19, 3:00 AM)4% (Nov 13, 4:00 PM)29.65 "Hg (Nov 22, 4:00 AM)
Average68 °F55%29.93 "Hg
* Reported Nov 11 9:30 AM — Nov 26 9:30 AM, Adelaide, Weather by CustomWeather, © 2014

Note: Actual official high and low records may vary slightly from our data, if they occured in-between our weather recording intervals... More about our weather records

Advertising

Adelaide weather history for previous 24 hours

 ConditionsComfort  
Time TempWeatherWind HumidityBarometerVisibility
9:30 AM
Nov 26
64 °FScattered clouds.8 mph49%30.24 "HgN/A
9:00 AM64 °FScattered clouds.8 mph49%30.24 "HgN/A
8:30 AM63 °FScattered clouds.9 mph56%30.21 "HgN/A
8:00 AM61 °FScattered clouds.6 mph59%30.21 "HgN/A
7:30 AM59 °FScattered clouds.2 mph63%30.21 "HgN/A
7:00 AM57 °FScattered clouds.3 mph67%30.18 "HgN/A
6:30 AM54 °FPassing clouds.3 mph77%30.18 "HgN/A
6:00 AM54 °FPassing clouds.3 mph72%30.18 "HgN/A
5:30 AM52 °FPassing clouds.5 mph77%30.18 "HgN/A
5:00 AM52 °FClear.5 mph82%30.15 "Hg10 mi
4:30 AM54 °FClear.6 mph77%30.15 "Hg10 mi
4:00 AM55 °FClear.5 mph67%30.15 "Hg10 mi
3:30 AM55 °FClear.6 mph67%30.15 "Hg10 mi
3:00 AM55 °FClear.6 mph67%30.15 "Hg10 mi
2:30 AM55 °FClear.6 mph67%30.18 "Hg10 mi
2:00 AM55 °FClear.6 mph67%30.18 "Hg10 mi
1:30 AM57 °FClear.8 mph67%30.18 "Hg10 mi
1:00 AM57 °FClear.9 mph67%30.18 "Hg10 mi
12:30 AM57 °FClear.9 mph67%30.18 "Hg10 mi
12:00 AM57 °FClear.9 mph67%30.21 "Hg10 mi
11:30 PM
Nov 25
57 °FClear.8 mph67%30.21 "Hg10 mi
11:00 PM57 °FClear.12 mph67%30.21 "Hg10 mi
10:30 PM59 °FClear.12 mph63%30.21 "Hg10 mi
10:00 PM59 °FClear.12 mph63%30.21 "Hg10 mi
9:30 PM59 °FClear.9 mph63%30.21 "Hg10 mi
8:30 PM63 °FPassing clouds.12 mph52%30.18 "HgN/A
8:00 PM63 °FPassing clouds.13 mph59%30.18 "HgN/A
7:30 PM64 °FPassing clouds.13 mph56%30.18 "HgN/A
7:00 PM64 °FPassing clouds.15 mph49%30.15 "HgN/A
6:30 PM66 °FPassing clouds.16 mph46%30.15 "HgN/A
6:00 PM66 °FPassing clouds.16 mph43%30.15 "HgN/A
5:30 PM66 °FPassing clouds.15 mph43%30.15 "HgN/A
5:00 PM66 °FPassing clouds.13 mph43%30.15 "HgN/A
4:30 PM66 °FPassing clouds.14 mph49%30.18 "HgN/A
4:00 PM66 °FPassing clouds.13 mph46%30.18 "HgN/A
3:30 PM66 °FPassing clouds.15 mph46%30.18 "HgN/A
3:00 PM66 °FPassing clouds.14 mph43%30.18 "HgN/A
2:30 PM66 °FPassing clouds.12 mph43%30.18 "HgN/A
2:00 PM66 °FPassing clouds.10 mph37%30.21 "HgN/A
1:30 PM66 °FPassing clouds.12 mph37%30.21 "HgN/A
1:00 PM66 °FPassing clouds.12 mph37%30.21 "HgN/A
12:30 PM66 °FPassing clouds.13 mph40%30.21 "HgN/A
12:00 PM64 °FPassing clouds.13 mph46%30.21 "HgN/A
11:30 AM66 °FScattered clouds.14 mph49%30.21 "HgN/A
11:00 AM64 °FScattered clouds.14 mph52%30.21 "HgN/A
Weather by CustomWeather, © 2014

See weather overviewHow to use our weather pages